FENGYUN 1C DEB, 30489

Orbit data source: Space-Track

FENGYUN 1C DEB, 30489 is space debris in SSO originally from a launch on Mon, 10 May 1999 UTC launched from the Taiyaun Space Center, China (TSC). Fengyun 1C debris stems from the Chinese weather satellite Fengyun-1C, which was intentionally destroyed by a Chinese anti-satellite missile in 2007. This event dramatically increased the amount of space debris, with thousands of trackable fragments posing hazards to satellites and human spaceflight. The Fengyun 1C debris cloud has become a focal point in discussions about space sustainability and the need for international regulations to prevent the creation of new debris.

Loading next visibility...
Identifier
30489, 1999-025AHB
Orbit
SSO
Country
Flag of CNCN / PRC
Related business
Manufacturer
Unknown
Mission
Spacecraft
Bus & Motor
Unknown
Mass
Unknown
Launch date (UTC)
1999-05-10 (27 years ago)
Launch vehicle
Unknown
Launch site
Taiyaun Space Center, China (TSC)
Object type
Payload
Rocket body
Debris
Shape & HBR
Unknown shape, 0.1 m
Radar Cross Section
Small (<0.1 m²)

Expand to show TLE details & history
Last TLE update: 1 day ago

TLE from 1 day ago
0 FENGYUN 1C DEB
1 30489U 99025AHB 25353.02798531  .00000433  00000-0  21999-3 0  9995
2 30489  98.4680   7.6124 0139024 246.7739 168.4587 14.15828038974760
Epoch: 2025-12-19T00:40Z
TLE epoch observation values (Epoch: 2025-12-19T00:40:17.930Z)
Latitude
54.74428°
Longitude
-102.4316°
Altitude
946.903 km
Speed
7.333 km/s
True Right ascension
23h 42m 04s
True Declination
54° 35' 10"
Sunlit
Object was in daylight at epoch
Visualization orbit readout
Latitude
Unknown
Longitude
Unknown
Altitude
Unknown
Speed
Unknown
Apparent Right ascension
Unknown
Apparent Declination
Unknown
Sunlit
N/A
Visualization observer readout
Local Sidereal Time
01:08:41
Azimuth
Unknown
Elevation
Unknown
Doppler factor
Unknown
Orbital elements
Apogee altitude
936.951 km
Perigee altitude
736.346 km
Semi-major axis
7,214.786 km
Eccentricity
0.0139
Inclination
98.468°
RAAN
7.6124°
Arg. of periapsis
246.7739°
True anomaly
168.7721°
Mean anomaly
168.4587°
Eccentric anomaly
168.61593°
Mean motion
3.54167 °/min
Orbital period
101.65 mins
BSTAR
0.00021999
Loading maneuver chart data...
Computing Atmospheric mass density...

Documentation

Showing up to 5 results
|